Weather History for KP53 - September, 2012

Change the Weather History Date:

Sunday, September 9, 2012

  Actual Average (KISQ) Record (KISQ)
Temperature  
Mean Temperature 56 °F -  
Max Temperature 66 °F 67 °F 81 °F (1961)
Min Temperature 46 °F 49 °F 32 °F (1986)
Degree Days  
Heating Degree Days 9    
Growing Degree Days 6 (Base 50)    
Moisture  
Dew Point 47 °F    
Average Humidity 69    
Maximum Humidity 90    
Minimum Humidity 48    
Precipitation  
Precipitation 0.00 in - - ()
Sea Level Pressure  
Sea Level Pressure 30.02 in    
Wind  
Wind Speed 9 mph (NNW)    
Max Wind Speed 16 mph    
Max Gust Speed 22 mph    
Averages and records for this station are not official NWS values.
T = Trace of Precipitation, MM = Missing Value Source: NWS Daily Summary

Daily Weather History Graph

Daily Weather History Graph

Search for Another Location

Airport or City:

Trip Planner

Search our weather history database for the weather conditions in past years. The results will help you decide how hot, cold, wet, or windy it might be!

Date:

Astronomy

Sep. 09, 2012 Rise Set
Actual Time 7:17 AM EDT 8:08 PM EDT
Civil Twilight 6:46 AM EDT 8:39 PM EDT
Nautical Twilight 6:10 AM EDT 9:15 PM EDT
Astronomical Twilight 5:32 AM EDT 9:53 PM EDT
Moon 12:30 AM EDT (9/9) 4:09 PM EDT (9/9)
Length of Visible Light 13h 52m
Length of Day
12h 51m
Last Quarter, 39% of the Moon is Illuminated
Sep 9
Last Quarter
Sep 15
New
Sep 22
First Quarter
Sep 29
Full
Oct 8
Last Quarter

Hourly Weather History & Observations

Time (EDT) Temp. Dew Point Humidity Pressure Visibility Wind Dir Wind Speed Gust Speed Precip Events Conditions
12:56 AM 60.1 °F 46.0 °F 60% 29.86 in - NNW 5.8 mph - N/A   Unknown
1:56 AM 48.9 °F 44.1 °F 83% 29.88 in - South 6.9 mph - N/A   Unknown
2:56 AM 48.0 °F 44.1 °F 86% 29.88 in - South 8.1 mph - N/A   Unknown
3:56 AM 48.0 °F 44.1 °F 86% 29.90 in - South 8.1 mph - N/A   Unknown
4:56 AM 48.0 °F 45.0 °F 89% 29.91 in - South 6.9 mph - N/A   Unknown
5:56 AM 46.9 °F 44.1 °F 90% 29.93 in - South 9.2 mph - N/A   Unknown
6:56 AM 46.9 °F 44.1 °F 90% 29.95 in - South 9.2 mph - N/A   Unknown
7:56 AM 48.0 °F 44.1 °F 86% 29.98 in - South 8.1 mph - N/A   Unknown
8:56 AM 63.0 °F 46.9 °F 56% 29.99 in - North 11.5 mph - N/A   Unknown
9:56 AM 64.0 °F 46.9 °F 54% 30.01 in - North 12.7 mph - N/A   Unknown
10:56 AM 64.9 °F 46.9 °F 52% 30.03 in - North 13.8 mph - N/A   Unknown
11:56 AM 64.9 °F 45.0 °F 48% 30.04 in - NNW 12.7 mph - N/A   Unknown
12:56 PM 66.0 °F 46.9 °F 50% 30.05 in - North 11.5 mph - N/A   Unknown
1:56 PM 64.9 °F 48.9 °F 56% 30.06 in - North 12.7 mph - N/A   Unknown
2:56 PM 64.9 °F 50.0 °F 58% 30.07 in - NNW 13.8 mph 21.9 mph N/A   Unknown
3:56 PM 63.0 °F 51.1 °F 65% 30.09 in - North 16.1 mph - N/A   Unknown
4:56 PM 64.0 °F 51.1 °F 63% 30.09 in - North 12.7 mph - N/A   Unknown
5:56 PM 64.0 °F 51.1 °F 63% 30.10 in - NNW 10.4 mph 18.4 mph N/A   Unknown
6:56 PM 63.0 °F 51.1 °F 65% 30.11 in - North 12.7 mph - N/A   Unknown
7:56 PM 62.1 °F 51.1 °F 67% 30.11 in - North 8.1 mph - N/A   Unknown
8:56 PM 61.0 °F 51.1 °F 70% 30.10 in - North 10.4 mph - N/A   Unknown
9:56 PM 62.1 °F 50.0 °F 65% 30.11 in - NNW 12.7 mph - N/A   Unknown
10:56 PM 61.0 °F 50.0 °F 67% 30.11 in - North 9.2 mph - N/A   Unknown
11:56 PM 52.0 °F 46.0 °F 80% 30.12 in - South 6.9 mph - N/A   Unknown